Private Wetterstation Wechselburg
Wetterdaten: Mittwoch, 17.10.2012
Datum Zeit Temp. +2m Bodentemp. Temp.+5cm Temp. Wind Windchill X Diff Temp. Feuchte +2m Feuchte +5cm Sonnenschein Luftdruck Regen Wind Richtung Richtung Sonnenschein UV Taupunkt Windchill Windben
17.10.2012 00:00 9,6 C 15,0 C 9,2 C 9,5 C 9,3 C 0,0 C 73 % 78 % 0 % 1014,7 hPa 0,0 l/m 1,1 km/h (1 Bft) SO 135 0 min 0,0 UV-I 5,0 C 9,3 C 0,0 km/h (0 Bft)
17.10.2012 00:05 9,5 C 15,0 C 9,2 C 9,4 C 9,3 C 0,0 C 73 % 78 % 0 % 1014,7 hPa 0,0 l/m 1,0 km/h (0 Bft) W-SW 247 0 min 0,0 UV-I 4,9 C 9,3 C 0,0 km/h (0 Bft)
17.10.2012 00:10 9,6 C 15,0 C 9,3 C 9,5 C 9,4 C 0,0 C 73 % 78 % 0 % 1014,7 hPa 0,0 l/m 1,3 km/h (1 Bft) SW 225 0 min 0,0 UV-I 5,0 C 9,4 C 2,6 km/h (1 Bft)
17.10.2012 00:15 9,6 C 15,0 C 9,2 C 9,5 C 9,3 C 0,0 C 73 % 78 % 0 % 1014,7 hPa 0,0 l/m 2,9 km/h (1 Bft) W-SW 247 0 min 0,0 UV-I 5,0 C 9,3 C 4,3 km/h (1 Bft)
17.10.2012 00:20 9,6 C 15,0 C 9,1 C 9,5 C 9,2 C 0,0 C 73 % 78 % 0 % 1014,9 hPa 0,0 l/m 3,1 km/h (1 Bft) W-SW 247 0 min 0,0 UV-I 5,0 C 9,2 C 8,4 km/h (2 Bft)
17.10.2012 00:25 9,5 C 15,0 C 9,1 C 9,3 C 9,0 C 0,0 C 73 % 78 % 0 % 1014,9 hPa 0,0 l/m 2,6 km/h (1 Bft) SW 225 0 min 0,0 UV-I 4,9 C 9,0 C 2,4 km/h (1 Bft)
17.10.2012 00:30 9,5 C 15,0 C 9,1 C 9,4 C 9,1 C 0,0 C 73 % 78 % 0 % 1014,9 hPa 0,0 l/m 3,1 km/h (1 Bft) S 180 0 min 0,0 UV-I 4,9 C 9,1 C 5,6 km/h (1 Bft)
17.10.2012 00:35 9,5 C 15,0 C 9,0 C 9,4 C 9,2 C 0,0 C 73 % 78 % 0 % 1014,9 hPa 0,0 l/m 3,4 km/h (1 Bft) SW 225 0 min 0,0 UV-I 4,9 C 9,2 C 4,2 km/h (1 Bft)
17.10.2012 00:41 9,5 C 15,0 C 9,1 C 9,4 C 9,1 C 0,0 C 73 % 79 % 0 % 1015,0 hPa 0,0 l/m 3,2 km/h (1 Bft) N 0 0 min 0,0 UV-I 4,9 C 9,1 C 9,0 km/h (2 Bft)
17.10.2012 00:55 9,3 C 15,0 C 8,7 C 9,0 C 8,3 C 0,0 C 73 % 79 % 0 % 1015,0 hPa 0,0 l/m 1,8 km/h (1 Bft) SW 225 0 min 0,0 UV-I 4,7 C 8,3 C 6,1 km/h (2 Bft)
17.10.2012 01:00 9,2 C 15,0 C 8,7 C 8,9 C 8,3 C 0,0 C 74 % 79 % 0 % 1015,4 hPa 0,0 l/m 1,9 km/h (1 Bft) SW 225 0 min 0,0 UV-I 4,8 C 8,3 C 0,0 km/h (0 Bft)
17.10.2012 01:05 9,0 C 15,0 C 8,7 C 8,7 C 8,2 C 0,0 C 74 % 79 % 0 % 1015,4 hPa 0,0 l/m 1,8 km/h (1 Bft) W-SW 247 0 min 0,0 UV-I 4,6 C 8,2 C 4,8 km/h (1 Bft)
17.10.2012 01:10 9,0 C 15,1 C 8,5 C 8,7 C 8,0 C 0,0 C 74 % 79 % 0 % 1015,4 hPa 0,0 l/m 1,6 km/h (1 Bft) NW 315 0 min 0,0 UV-I 4,6 C 8,0 C 2,7 km/h (1 Bft)
17.10.2012 01:15 8,8 C 15,1 C 8,5 C 8,5 C 7,8 C 0,0 C 75 % 79 % 0 % 1015,4 hPa 0,0 l/m 1,0 km/h (0 Bft) NW 315 0 min 0,0 UV-I 4,6 C 7,8 C 3,9 km/h (1 Bft)
17.10.2012 01:20 8,7 C 15,1 C 8,3 C 8,3 C 7,6 C 0,0 C 75 % 80 % 0 % 1015,3 hPa 0,0 l/m 1,0 km/h (0 Bft) W-SW 247 0 min 0,0 UV-I 4,5 C 7,6 C 1,8 km/h (1 Bft)
17.10.2012 01:25 8,7 C 15,1 C 8,3 C 8,3 C 7,5 C 0,0 C 75 % 80 % 0 % 1015,3 hPa 0,0 l/m 1,3 km/h (1 Bft) S 180 0 min 0,0 UV-I 4,5 C 7,5 C 2,1 km/h (1 Bft)
17.10.2012 01:30 8,5 C 15,1 C 8,1 C 8,1 C 7,2 C 0,0 C 75 % 80 % 0 % 1015,3 hPa 0,0 l/m 1,1 km/h (1 Bft) N-NW 337 0 min 0,0 UV-I 4,3 C 7,2 C 0,0 km/h (0 Bft)
17.10.2012 01:35 8,4 C 15,1 C 8,1 C 7,9 C 7,0 C 0,0 C 76 % 80 % 0 % 1015,3 hPa 0,0 l/m 0,5 km/h (0 Bft) SW 225 0 min 0,0 UV-I 4,4 C 7,0 C 1,8 km/h (1 Bft)
17.10.2012 01:40 8,3 C 15,2 C 7,9 C 7,8 C 6,9 C 0,0 C 76 % 80 % 0 % 1015,5 hPa 0,0 l/m 0,2 km/h (0 Bft) S-SO 157 0 min 0,0 UV-I 4,3 C 6,9 C 0,0 km/h (0 Bft)
17.10.2012 01:45 8,1 C 15,2 C 7,5 C 7,6 C 6,7 C 0,0 C 77 % 81 % 0 % 1015,5 hPa 0,0 l/m 0,3 km/h (0 Bft) W-SW 247 0 min 0,0 UV-I 4,3 C 6,7 C 1,8 km/h (1 Bft)
17.10.2012 01:50 7,9 C 15,2 C 7,5 C 7,4 C 6,5 C 0,0 C 77 % 81 % 0 % 1015,5 hPa 0,0 l/m 0,3 km/h (0 Bft) W-SW 247 0 min 0,0 UV-I 4,1 C 6,5 C 0,0 km/h (0 Bft)
17.10.2012 01:55 7,7 C 15,2 C 7,4 C 7,2 C 6,3 C 0,0 C 77 % 82 % 0 % 1015,5 hPa 0,0 l/m 0,2 km/h (0 Bft) W-SW 247 0 min 0,0 UV-I 3,9 C 6,3 C 1,9 km/h (1 Bft)
17.10.2012 02:00 7,6 C 15,2 C 7,5 C 7,1 C 6,1 C 0,0 C 78 % 82 % 0 % 1015,6 hPa 0,0 l/m 0,2 km/h (0 Bft) W-SW 247 0 min 0,0 UV-I 4,0 C 6,1 C 0,0 km/h (0 Bft)
17.10.2012 02:05 7,3 C 15,2 C 6,9 C 6,8 C 5,7 C 0,0 C 78 % 82 % 0 % 1015,6 hPa 0,0 l/m 0,2 km/h (0 Bft) W-SW 247 0 min 0,0 UV-I 3,7 C 5,7 C 0,0 km/h (0 Bft)
17.10.2012 02:10 7,1 C 15,3 C 6,7 C 6,6 C 5,5 C 0,0 C 78 % 82 % 0 % 1015,6 hPa 0,0 l/m 0,0 km/h (0 Bft) N-NW 337 0 min 0,0 UV-I 3,5 C 5,5 C 0,0 km/h (0 Bft)
17.10.2012 02:15 6,9 C 15,3 C 6,5 C 6,3 C 5,2 C 0,0 C 79 % 83 % 0 % 1015,6 hPa 0,0 l/m 0,0 km/h (0 Bft) O-NO 67 0 min 0,0 UV-I 3,5 C 5,2 C 0,0 km/h (0 Bft)
17.10.2012 02:20 6,7 C 15,3 C 6,5 C 6,1 C 4,9 C 0,0 C 79 % 83 % 0 % 1016,0 hPa 0,0 l/m 0,0 km/h (0 Bft) W 270 0 min 0,0 UV-I 3,3 C 4,9 C 0,0 km/h (0 Bft)
17.10.2012 02:25 6,4 C 15,3 C 6,3 C 5,8 C 4,7 C 0,0 C 79 % 84 % 0 % 1016,0 hPa 0,0 l/m 0,0 km/h (0 Bft) SW 225 0 min 0,0 UV-I 3,0 C 4,7 C 0,0 km/h (0 Bft)
17.10.2012 02:30 6,3 C 15,3 C 6,1 C 5,7 C 4,6 C 0,0 C 80 % 83 % 0 % 1016,0 hPa 0,0 l/m 0,0 km/h (0 Bft) W-SW 247 0 min 0,0 UV-I 3,1 C 4,6 C 0,0 km/h (0 Bft)
17.10.2012 02:35 6,0 C 15,2 C 6,0 C 5,5 C 4,4 C 0,0 C 80 % 84 % 0 % 1016,0 hPa 0,0 l/m 0,2 km/h (0 Bft) S 180 0 min 0,0 UV-I 2,8 C 4,4 C 1,9 km/h (1 Bft)
17.10.2012 02:40 5,9 C 15,3 C 6,0 C 5,5 C 4,6 C 0,0 C 81 % 84 % 0 % 1016,0 hPa 0,0 l/m 0,2 km/h (0 Bft) S 180 0 min 0,0 UV-I 2,9 C 4,6 C 0,0 km/h (0 Bft)
17.10.2012 02:45 5,6 C 15,4 C 5,9 C 5,3 C 4,6 C 0,0 C 81 % 84 % 0 % 1016,0 hPa 0,0 l/m 0,2 km/h (0 Bft) O-SO 112 0 min 0,0 UV-I 2,6 C 4,6 C 0,0 km/h (0 Bft)
17.10.2012 02:50 5,5 C 15,4 C 5,6 C 5,1 C 4,4 C 0,0 C 82 % 85 % 0 % 1016,0 hPa 0,0 l/m 0,0 km/h (0 Bft) W-SW 247 0 min 0,0 UV-I 2,7 C 4,4 C 0,0 km/h (0 Bft)
17.10.2012 02:55 5,2 C 15,3 C 5,9 C 4,9 C 4,4 C 0,0 C 82 % 86 % 0 % 1016,0 hPa 0,0 l/m 0,0 km/h (0 Bft) W-SW 247 0 min 0,0 UV-I 2,4 C 4,4 C 0,0 km/h (0 Bft)
17.10.2012 03:00 5,1 C 15,4 C 5,7 C 4,9 C 4,4 C 0,0 C 82 % 86 % 0 % 1016,8 hPa 0,0 l/m 0,0 km/h (0 Bft) O-NO 67 0 min 0,0 UV-I 2,3 C 4,4 C 0,0 km/h (0 Bft)
17.10.2012 03:05 4,9 C 15,4 C 5,6 C 4,7 C 4,2 C 0,0 C 83 % 85 % 0 % 1016,8 hPa 0,0 l/m 0,0 km/h (0 Bft) O-NO 67 0 min 0,0 UV-I 2,3 C 4,2 C 0,0 km/h (0 Bft)
17.10.2012 03:10 4,8 C 15,4 C 5,5 C 4,6 C 4,1 C 0,0 C 83 % 85 % 0 % 1016,8 hPa 0,0 l/m 0,0 km/h (0 Bft) O-NO 67 0 min 0,0 UV-I 2,2 C 4,1 C 0,0 km/h (0 Bft)
17.10.2012 03:15 4,7 C 15,4 C 5,3 C 4,4 C 3,9 C 0,0 C 83 % 86 % 0 % 1016,8 hPa 0,0 l/m 0,0 km/h (0 Bft) O 90 0 min 0,0 UV-I 2,1 C 3,9 C 0,0 km/h (0 Bft)
17.10.2012 03:20 4,5 C 15,5 C 5,2 C 4,3 C 4,0 C 0,0 C 83 % 86 % 0 % 1016,2 hPa 0,0 l/m 0,0 km/h (0 Bft) O 90 0 min 0,0 UV-I 1,9 C 4,0 C 0,0 km/h (0 Bft)
17.10.2012 03:25 4,5 C 15,4 C 5,1 C 4,4 C 4,1 C 0,0 C 84 % 86 % 0 % 1016,2 hPa 0,0 l/m 0,0 km/h (0 Bft) O-NO 67 0 min 0,0 UV-I 2,0 C 4,1 C 0,0 km/h (0 Bft)
17.10.2012 03:30 4,4 C 15,4 C 5,1 C 4,3 C 4,0 C 0,0 C 84 % 86 % 0 % 1016,2 hPa 0,0 l/m 0,0 km/h (0 Bft) O-NO 67 0 min 0,0 UV-I 1,9 C 4,0 C 0,0 km/h (0 Bft)
17.10.2012 03:35 4,3 C 15,4 C 5,0 C 4,1 C 3,8 C 0,0 C 84 % 86 % 0 % 1016,2 hPa 0,0 l/m 0,0 km/h (0 Bft) O 90 0 min 0,0 UV-I 1,8 C 3,8 C 0,0 km/h (0 Bft)
17.10.2012 03:40 4,1 C 15,4 C 4,8 C 4,0 C 3,7 C 0,0 C 84 % 86 % 0 % 1016,2 hPa 0,0 l/m 0,0 km/h (0 Bft) N-NO 22 0 min 0,0 UV-I 1,6 C 3,7 C 0,0 km/h (0 Bft)
17.10.2012 03:45 4,0 C 15,4 C 4,9 C 3,9 C 3,7 C 0,0 C 84 % 87 % 0 % 1016,2 hPa 0,0 l/m 0,0 km/h (0 Bft) W-NW 292 0 min 0,0 UV-I 1,5 C 3,7 C 0,0 km/h (0 Bft)
17.10.2012 03:50 3,9 C 15,4 C 4,9 C 3,8 C 3,6 C 0,0 C 84 % 87 % 0 % 1016,2 hPa 0,0 l/m 0,0 km/h (0 Bft) O 90 0 min 0,0 UV-I 1,4 C 3,6 C 0,0 km/h (0 Bft)
17.10.2012 03:55 3,9 C 15,4 C 4,7 C 3,8 C 3,7 C 0,0 C 85 % 87 % 0 % 1016,2 hPa 0,0 l/m 0,0 km/h (0 Bft) NO 45 0 min 0,0 UV-I 1,6 C 3,7 C 0,0 km/h (0 Bft)
17.10.2012 04:00 3,7 C 15,4 C 4,8 C 3,7 C 3,7 C 0,0 C 85 % 87 % 0 % 1016,6 hPa 0,0 l/m 0,0 km/h (0 Bft) W-SW 247 0 min 0,0 UV-I 1,4 C 3,7 C 0,0 km/h (0 Bft)
17.10.2012 04:05 3,6 C 15,4 C 4,8 C 3,6 C 3,6 C 0,0 C 85 % 87 % 0 % 1016,6 hPa 0,0 l/m 0,0 km/h (0 Bft) S 180 0 min 0,0 UV-I 1,3 C 3,6 C 0,0 km/h (0 Bft)
17.10.2012 04:10 3,6 C 15,4 C 4,7 C 3,5 C 3,4 C 0,0 C 85 % 87 % 0 % 1016,6 hPa 0,0 l/m 0,0 km/h (0 Bft) S 180 0 min 0,0 UV-I 1,3 C 3,4 C 0,0 km/h (0 Bft)
17.10.2012 04:15 3,6 C 15,4 C 4,7 C 3,5 C 3,4 C 0,0 C 85 % 87 % 0 % 1016,6 hPa 0,0 l/m 0,0 km/h (0 Bft) O-NO 67 0 min 0,0 UV-I 1,3 C 3,4 C 0,0 km/h (0 Bft)
17.10.2012 04:20 3,5 C 15,4 C 4,7 C 3,4 C 3,3 C 0,0 C 85 % 88 % 0 % 1016,6 hPa 0,0 l/m 0,0 km/h (0 Bft) W-SW 247 0 min 0,0 UV-I 1,2 C 3,3 C 0,0 km/h (0 Bft)
17.10.2012 04:25 3,5 C 15,4 C 4,5 C 3,4 C 3,2 C 0,0 C 86 % 87 % 0 % 1016,6 hPa 0,0 l/m 0,0 km/h (0 Bft) O 90 0 min 0,0 UV-I 1,4 C 3,2 C 0,0 km/h (0 Bft)
17.10.2012 04:30 3,5 C 15,4 C 4,4 C 3,4 C 3,2 C 0,0 C 86 % 88 % 0 % 1016,6 hPa 0,0 l/m 0,0 km/h (0 Bft) O 90 0 min 0,0 UV-I 1,4 C 3,2 C 0,0 km/h (0 Bft)
17.10.2012 04:35 3,3 C 15,4 C 4,3 C 3,3 C 3,2 C 0,0 C 86 % 88 % 0 % 1016,6 hPa 0,0 l/m 0,0 km/h (0 Bft) O-NO 67 0 min 0,0 UV-I 1,2 C 3,2 C 0,0 km/h (0 Bft)
17.10.2012 04:40 3,3 C 15,4 C 4,2 C 3,3 C 3,2 C 0,0 C 86 % 88 % 0 % 1016,9 hPa 0,0 l/m 0,0 km/h (0 Bft) O-SO 112 0 min 0,0 UV-I 1,2 C 3,2 C 0,0 km/h (0 Bft)
17.10.2012 04:45 3,2 C 15,4 C 4,3 C 3,1 C 3,0 C 0,0 C 86 % 88 % 0 % 1016,9 hPa 0,0 l/m 0,2 km/h (0 Bft) W-SW 247 0 min 0,0 UV-I 1,1 C 3,0 C 0,0 km/h (0 Bft)
17.10.2012 04:50 3,1 C 15,3 C 4,4 C 3,1 C 3,0 C 0,0 C 86 % 88 % 0 % 1016,9 hPa 0,0 l/m 0,2 km/h (0 Bft) SW 225 0 min 0,0 UV-I 1,0 C 3,0 C 0,0 km/h (0 Bft)
17.10.2012 04:55 3,1 C 15,4 C 4,3 C 3,0 C 2,8 C 0,0 C 86 % 88 % 0 % 1016,9 hPa 0,0 l/m 0,0 km/h (0 Bft) S-SO 157 0 min 0,0 UV-I 1,0 C 2,8 C 0,0 km/h (0 Bft)
17.10.2012 05:00 2,9 C 15,3 C 4,4 C 2,8 C 2,7 C 0,0 C 86 % 88 % 0 % 1016,7 hPa 0,0 l/m 0,0 km/h (0 Bft) W 270 0 min 0,0 UV-I 0,8 C 2,7 C 0,0 km/h (0 Bft)
17.10.2012 05:05 2,8 C 15,4 C 4,3 C 2,7 C 2,5 C 0,0 C 86 % 88 % 0 % 1016,7 hPa 0,0 l/m 0,0 km/h (0 Bft) O 90 0 min 0,0 UV-I 0,7 C 2,5 C 0,0 km/h (0 Bft)
17.10.2012 05:10 2,8 C 15,3 C 4,1 C 2,7 C 2,6 C 0,0 C 87 % 88 % 0 % 1016,7 hPa 0,0 l/m 0,0 km/h (0 Bft) O-SO 112 0 min 0,0 UV-I 0,9 C 2,6 C 0,0 km/h (0 Bft)
17.10.2012 05:15 2,8 C 15,3 C 3,9 C 2,7 C 2,5 C 0,0 C 87 % 88 % 0 % 1016,7 hPa 0,0 l/m 0,2 km/h (0 Bft) O-NO 67 0 min 0,0 UV-I 0,9 C 2,5 C 2,1 km/h (1 Bft)
17.10.2012 05:20 2,8 C 15,3 C 3,9 C 2,8 C 2,7 C 0,0 C 87 % 88 % 0 % 1017,2 hPa 0,0 l/m 0,5 km/h (0 Bft) O-NO 67 0 min 0,0 UV-I 0,9 C 2,7 C 0,0 km/h (0 Bft)
17.10.2012 05:25 2,8 C 15,3 C 3,9 C 2,8 C 2,7 C 0,0 C 87 % 89 % 0 % 1017,2 hPa 0,0 l/m 0,3 km/h (0 Bft) W-SW 247 0 min 0,0 UV-I 0,9 C 2,7 C 0,0 km/h (0 Bft)
17.10.2012 05:30 2,8 C 15,3 C 4,0 C 2,7 C 2,6 C 0,0 C 87 % 89 % 0 % 1017,2 hPa 0,0 l/m 0,0 km/h (0 Bft) S 180 0 min 0,0 UV-I 0,9 C 2,6 C 0,0 km/h (0 Bft)
17.10.2012 05:35 2,7 C 15,3 C 3,9 C 2,6 C 2,5 C 0,0 C 87 % 89 % 0 % 1017,2 hPa 0,0 l/m 0,0 km/h (0 Bft) O-NO 67 0 min 0,0 UV-I 0,8 C 2,5 C 0,0 km/h (0 Bft)
17.10.2012 05:40 2,7 C 15,3 C 3,7 C 2,6 C 2,5 C 0,0 C 87 % 89 % 0 % 1017,3 hPa 0,0 l/m 0,0 km/h (0 Bft) O 90 0 min 0,0 UV-I 0,8 C 2,5 C 0,0 km/h (0 Bft)
17.10.2012 05:45 2,6 C 15,3 C 3,7 C 2,5 C 2,4 C 0,0 C 87 % 89 % 0 % 1017,3 hPa 0,0 l/m 0,0 km/h (0 Bft) O-NO 67 0 min 0,0 UV-I 0,7 C 2,4 C 0,0 km/h (0 Bft)
17.10.2012 05:50 2,6 C 15,2 C 3,6 C 2,5 C 2,4 C 0,0 C 87 % 89 % 0 % 1017,3 hPa 0,0 l/m 0,0 km/h (0 Bft) W-SW 247 0 min 0,0 UV-I 0,7 C 2,4 C 0,0 km/h (0 Bft)
17.10.2012 05:55 2,4 C 15,2 C 3,6 C 2,4 C 2,3 C 0,0 C 87 % 89 % 0 % 1017,3 hPa 0,0 l/m 0,0 km/h (0 Bft) W-SW 247 0 min 0,0 UV-I 0,5 C 2,3 C 0,0 km/h (0 Bft)
17.10.2012 06:00 2,4 C 15,3 C 3,6 C 2,3 C 2,2 C 0,0 C 87 % 89 % 0 % 1017,4 hPa 0,0 l/m 0,0 km/h (0 Bft) O 90 0 min 0,0 UV-I 0,5 C 2,2 C 0,0 km/h (0 Bft)
17.10.2012 06:05 2,4 C 15,3 C 3,5 C 2,4 C 2,3 C 0,0 C 88 % 89 % 0 % 1017,4 hPa 0,0 l/m 0,0 km/h (0 Bft) O-NO 67 0 min 0,0 UV-I 0,6 C 2,3 C 0,0 km/h (0 Bft)
17.10.2012 06:10 2,3 C 15,2 C 3,5 C 2,4 C 2,4 C 0,1 C 88 % 89 % 0 % 1017,4 hPa 0,0 l/m 0,0 km/h (0 Bft) O-SO 112 0 min 0,0 UV-I 0,5 C 2,4 C 0,0 km/h (0 Bft)
17.10.2012 06:15 2,4 C 15,2 C 3,5 C 2,4 C 2,4 C 0,0 C 88 % 89 % 0 % 1017,4 hPa 0,0 l/m 0,0 km/h (0 Bft) O-SO 112 0 min 0,0 UV-I 0,6 C 2,4 C 0,0 km/h (0 Bft)
17.10.2012 06:20 2,3 C 15,2 C 3,3 C 2,3 C 2,3 C 0,0 C 88 % 89 % 0 % 1017,4 hPa 0,0 l/m 0,0 km/h (0 Bft) O 90 0 min 0,0 UV-I 0,5 C 2,3 C 0,0 km/h (0 Bft)
17.10.2012 06:25 2,2 C 15,2 C 3,2 C 2,2 C 2,2 C 0,0 C 88 % 89 % 0 % 1017,4 hPa 0,0 l/m 0,0 km/h (0 Bft) O-NO 67 0 min 0,0 UV-I 0,4 C 2,2 C 0,0 km/h (0 Bft)
17.10.2012 06:30 2,1 C 15,2 C 3,3 C 2,3 C 2,3 C 0,2 C 88 % 89 % 0 % 1017,4 hPa 0,0 l/m 0,0 km/h (0 Bft) O 90 0 min 0,0 UV-I 0,3 C 2,3 C 0,0 km/h (0 Bft)
17.10.2012 06:35 2,3 C 15,2 C 3,1 C 2,3 C 2,3 C 0,0 C 88 % 89 % 0 % 1017,4 hPa 0,0 l/m 0,0 km/h (0 Bft) O-NO 67 0 min 0,0 UV-I 0,5 C 2,3 C 0,0 km/h (0 Bft)
17.10.2012 06:46 2,3 C 15,2 C 3,2 C 2,3 C 2,3 C 0,0 C 89 % 89 % 0 % 1017,4 hPa 0,0 l/m 0,0 km/h (0 Bft) N 0 0 min 0,0 UV-I 0,7 C 2,3 C 0,0 km/h (0 Bft)
17.10.2012 06:55 2,0 C 15,1 C 3,1 C 1,9 C 1,8 C 0,0 C 88 % 89 % 0 % 1017,4 hPa 0,0 l/m 0,0 km/h (0 Bft) W-SW 247 0 min 0,0 UV-I 0,2 C 1,8 C 0,0 km/h (0 Bft)
17.10.2012 07:00 1,9 C 15,1 C 2,9 C 1,8 C 1,5 C 0,0 C 88 % 89 % 0 % 1017,5 hPa 0,0 l/m 0,0 km/h (0 Bft) W-SW 247 0 min 0,0 UV-I 0,1 C 1,5 C 0,0 km/h (0 Bft)
17.10.2012 07:05 1,7 C 15,1 C 3,1 C 1,5 C 1,2 C 0,0 C 88 % 89 % 0 % 1017,5 hPa 0,0 l/m 0,0 km/h (0 Bft) SW 225 0 min 0,0 UV-I -0,1 C 1,2 C 0,0 km/h (0 Bft)
17.10.2012 07:10 1,6 C 15,1 C 2,8 C 1,4 C 1,1 C 0,0 C 88 % 89 % 0 % 1017,5 hPa 0,0 l/m 0,0 km/h (0 Bft) W-SW 247 0 min 0,0 UV-I -0,2 C 1,1 C 0,0 km/h (0 Bft)
17.10.2012 07:15 1,5 C 15,1 C 2,7 C 1,3 C 0,8 C 0,0 C 88 % 89 % 0 % 1017,5 hPa 0,0 l/m 0,0 km/h (0 Bft) W 270 0 min 0,0 UV-I -0,3 C 0,8 C 0,0 km/h (0 Bft)
17.10.2012 07:20 1,4 C 15,1 C 2,6 C 1,3 C 1,0 C 0,0 C 88 % 89 % 0 % 1017,2 hPa 0,0 l/m 0,0 km/h (0 Bft) W 270 0 min 0,0 UV-I -0,4 C 1,0 C 0,0 km/h (0 Bft)
17.10.2012 07:25 1,4 C 15,1 C 2,8 C 1,3 C 1,1 C 0,0 C 88 % 89 % 0 % 1017,2 hPa 0,0 l/m 0,0 km/h (0 Bft) S-SW 202 0 min 0,0 UV-I -0,4 C 1,1 C 0,0 km/h (0 Bft)
17.10.2012 07:30 1,3 C 15,2 C 2,7 C 1,2 C 1,1 C 0,0 C 88 % 89 % 0 % 1017,2 hPa 0,0 l/m 0,0 km/h (0 Bft) S 180 0 min 0,0 UV-I -0,5 C 1,1 C 0,0 km/h (0 Bft)
17.10.2012 07:35 1,2 C 15,1 C 2,8 C 1,2 C 1,2 C 0,0 C 88 % 90 % 0 % 1017,2 hPa 0,0 l/m 0,0 km/h (0 Bft) SW 225 0 min 0,0 UV-I -0,6 C 1,2 C 0,0 km/h (0 Bft)
17.10.2012 07:40 1,2 C 15,1 C 2,9 C 1,2 C 1,2 C 0,0 C 88 % 90 % 0 % 1017,4 hPa 0,0 l/m 0,0 km/h (0 Bft) W-SW 247 0 min 0,0 UV-I -0,6 C 1,2 C 0,0 km/h (0 Bft)
17.10.2012 07:45 1,1 C 15,1 C 2,7 C 1,2 C 1,2 C 0,1 C 88 % 90 % 0 % 1017,4 hPa 0,0 l/m 0,0 km/h (0 Bft) W 270 0 min 0,0 UV-I -0,7 C 1,2 C 0,0 km/h (0 Bft)
17.10.2012 07:50 1,1 C 15,1 C 2,8 C 1,1 C 1,1 C 0,0 C 88 % 90 % 0 % 1017,4 hPa 0,0 l/m 0,0 km/h (0 Bft) SW 225 0 min 0,0 UV-I -0,7 C 1,1 C 0,0 km/h (0 Bft)
17.10.2012 07:55 1,1 C 15,1 C 2,8 C 1,1 C 1,0 C 0,0 C 88 % 90 % 0 % 1017,4 hPa 0,0 l/m 0,0 km/h (0 Bft) W-SW 247 0 min 0,0 UV-I -0,7 C 1,0 C 0,0 km/h (0 Bft)
17.10.2012 08:00 1,0 C 15,1 C 2,7 C 1,0 C 1,0 C 0,0 C 88 % 90 % 0 % 1017,3 hPa 0,0 l/m 0,0 km/h (0 Bft) SW 225 0 min 0,0 UV-I -0,8 C 1,0 C 0,0 km/h (0 Bft)
17.10.2012 08:05 0,9 C 15,1 C 2,7 C 1,0 C 1,0 C 0,1 C 88 % 90 % 3 % 1017,3 hPa 0,0 l/m 0,0 km/h (0 Bft) SW 225 0 min 0,0 UV-I -0,9 C 1,0 C 0,0 km/h (0 Bft)
17.10.2012 08:10 0,8 C 15,1 C 2,7 C 0,8 C 0,8 C 0,0 C 88 % 89 % 0 % 1017,3 hPa 0,0 l/m 0,0 km/h (0 Bft) SW 225 0 min 0,0 UV-I -1,0 C 0,8 C 0,0 km/h (0 Bft)
17.10.2012 08:15 0,8 C 15,1 C 2,5 C 0,8 C 0,7 C 0,0 C 88 % 89 % 0 % 1017,3 hPa 0,0 l/m 0,0 km/h (0 Bft) W-SW 247 0 min 0,0 UV-I -1,0 C 0,7 C 0,0 km/h (0 Bft)
17.10.2012 08:20 0,8 C 15,1 C 2,5 C 0,8 C 0,8 C 0,0 C 88 % 89 % 0 % 1017,2 hPa 0,0 l/m 0,5 km/h (0 Bft) O-NO 67 0 min 0,0 UV-I -1,0 C 0,8 C 2,6 km/h (1 Bft)
17.10.2012 08:25 1,1 C 15,1 C 2,7 C 1,3 C 1,3 C 0,2 C 89 % 90 % 5 % 1017,2 hPa 0,0 l/m 1,4 km/h (1 Bft) O-NO 67 0 min 0,0 UV-I -0,5 C 1,3 C 0,0 km/h (0 Bft)
17.10.2012 08:30 1,2 C 15,1 C 2,6 C 1,6 C 1,6 C 0,4 C 89 % 90 % 11 % 1017,2 hPa 0,0 l/m 1,3 km/h (1 Bft) O-NO 67 0 min 0,0 UV-I -0,4 C 1,6 C 0,0 km/h (0 Bft)
17.10.2012 08:35 1,2 C 15,0 C 2,8 C 1,8 C 1,8 C 0,6 C 89 % 90 % 16 % 1017,2 hPa 0,0 l/m 0,0 km/h (0 Bft) SW 225 0 min 0,0 UV-I -0,4 C 1,8 C 0,0 km/h (0 Bft)
17.10.2012 08:40 1,2 C 15,0 C 3,1 C 1,9 C 1,9 C 0,7 C 89 % 91 % 18 % 1017,2 hPa 0,0 l/m 0,2 km/h (0 Bft) SW 225 0 min 0,0 UV-I -0,4 C 1,9 C 0,0 km/h (0 Bft)
17.10.2012 08:45 1,3 C 15,0 C 3,1 C 1,9 C 1,9 C 0,6 C 89 % 90 % 16 % 1017,2 hPa 0,0 l/m 0,3 km/h (0 Bft) W-SW 247 0 min 0,0 UV-I -0,3 C 1,9 C 0,0 km/h (0 Bft)
17.10.2012 08:50 1,2 C 15,0 C 3,1 C 1,9 C 1,9 C 0,7 C 89 % 90 % 18 % 1017,2 hPa 0,0 l/m 0,3 km/h (0 Bft) W 270 0 min 0,0 UV-I -0,4 C 1,9 C 0,0 km/h (0 Bft)
17.10.2012 08:55 1,4 C 15,0 C 3,1 C 1,9 C 1,9 C 0,5 C 90 % 90 % 13 % 1017,2 hPa 0,0 l/m 0,0 km/h (0 Bft) NW 315 0 min 0,0 UV-I -0,1 C 1,9 C 0,0 km/h (0 Bft)
17.10.2012 09:00 1,4 C 15,0 C 3,1 C 2,1 C 2,1 C 0,7 C 90 % 90 % 18 % 1017,5 hPa 0,0 l/m 0,0 km/h (0 Bft) N-NW 337 0 min 0,0 UV-I -0,1 C 2,1 C 0,0 km/h (0 Bft)
17.10.2012 09:05 1,6 C 14,9 C 3,3 C 2,5 C 2,5 C 0,9 C 90 % 91 % 24 % 1017,5 hPa 0,0 l/m 0,0 km/h (0 Bft) W-SW 247 0 min 0,0 UV-I 0,1 C 2,5 C 0,0 km/h (0 Bft)
17.10.2012 09:10 1,9 C 14,9 C 3,5 C 2,7 C 2,7 C 0,8 C 90 % 91 % 21 % 1017,5 hPa 0,0 l/m 0,0 km/h (0 Bft) S 180 0 min 0,0 UV-I 0,4 C 2,7 C 0,0 km/h (0 Bft)
17.10.2012 09:15 2,1 C 14,9 C 3,9 C 3,2 C 3,2 C 1,1 C 90 % 91 % 29 % 1017,5 hPa 0,0 l/m 0,0 km/h (0 Bft) SW 225 0 min 0,0 UV-I 0,6 C 3,2 C 0,0 km/h (0 Bft)
17.10.2012 09:20 2,3 C 14,9 C 4,1 C 3,7 C 3,7 C 1,4 C 91 % 91 % 37 % 1017,6 hPa 0,0 l/m 0,0 km/h (0 Bft) W 270 0 min 0,0 UV-I 1,0 C 3,7 C 0,0 km/h (0 Bft)
17.10.2012 09:25 2,8 C 14,9 C 4,5 C 4,4 C 4,4 C 1,6 C 91 % 91 % 42 % 1017,6 hPa 0,0 l/m 0,3 km/h (0 Bft) SW 225 0 min 0,0 UV-I 1,5 C 4,4 C 1,9 km/h (1 Bft)
17.10.2012 09:30 3,1 C 14,9 C 4,7 C 4,9 C 4,9 C 1,8 C 91 % 92 % 47 % 1017,6 hPa 0,0 l/m 0,8 km/h (0 Bft) W 270 0 min 0,0 UV-I 1,8 C 4,9 C 0,0 km/h (0 Bft)
17.10.2012 09:35 3,2 C 14,9 C 4,8 C 5,0 C 5,0 C 1,8 C 91 % 91 % 47 % 1017,6 hPa 0,0 l/m 1,3 km/h (1 Bft) NW 315 0 min 0,0 UV-I 1,9 C 5,0 C 0,0 km/h (0 Bft)
17.10.2012 09:40 3,5 C 14,8 C 5,1 C 5,1 C 5,1 C 1,6 C 91 % 91 % 42 % 1017,7 hPa 0,0 l/m 1,1 km/h (1 Bft) SW 225 0 min 0,0 UV-I 2,2 C 5,1 C 0,0 km/h (0 Bft)
17.10.2012 09:45 3,7 C 14,8 C 5,4 C 5,4 C 5,4 C 1,7 C 91 % 91 % 45 % 1017,7 hPa 0,0 l/m 0,5 km/h (0 Bft) W 270 0 min 0,0 UV-I 2,4 C 5,4 C 0,0 km/h (0 Bft)
17.10.2012 09:50 3,9 C 14,8 C 5,6 C 5,6 C 5,6 C 1,7 C 91 % 91 % 45 % 1017,7 hPa 0,0 l/m 0,2 km/h (0 Bft) S-SO 157 0 min 0,0 UV-I 2,6 C 5,6 C 1,6 km/h (1 Bft)
17.10.2012 09:55 4,4 C 14,8 C 5,9 C 5,9 C 5,9 C 1,5 C 92 % 92 % 39 % 1017,7 hPa 0,0 l/m 1,1 km/h (1 Bft) O-NO 67 0 min 0,0 UV-I 3,2 C 5,9 C 4,5 km/h (1 Bft)
17.10.2012 10:00 4,7 C 14,7 C 6,1 C 6,3 C 6,3 C 1,6 C 92 % 91 % 42 % 1017,4 hPa 0,0 l/m 1,9 km/h (1 Bft) NW 315 0 min 0,1 UV-I 3,5 C 6,3 C 0,0 km/h (0 Bft)
17.10.2012 10:05 5,1 C 14,6 C 6,5 C 6,7 C 6,7 C 1,6 C 92 % 91 % 42 % 1017,4 hPa 0,0 l/m 1,3 km/h (1 Bft) O-NO 67 0 min 0,1 UV-I 3,9 C 6,7 C 0,0 km/h (0 Bft)
17.10.2012 10:10 5,2 C 14,6 C 6,8 C 6,9 C 6,9 C 1,7 C 92 % 91 % 45 % 1017,4 hPa 0,0 l/m 0,6 km/h (0 Bft) S 180 0 min 0,1 UV-I 4,0 C 6,9 C 0,0 km/h (0 Bft)
17.10.2012 10:15 5,6 C 14,6 C 6,9 C 7,2 C 7,2 C 1,6 C 91 % 90 % 42 % 1017,4 hPa 0,0 l/m 1,0 km/h (0 Bft) S 180 0 min 0,1 UV-I 4,2 C 7,2 C 1,8 km/h (1 Bft)
17.10.2012 10:20 5,9 C 14,5 C 7,1 C 7,4 C 7,4 C 1,5 C 92 % 90 % 39 % 1017,2 hPa 0,0 l/m 1,3 km/h (1 Bft) SO 135 0 min 0,1 UV-I 4,7 C 7,4 C 2,4 km/h (1 Bft)
17.10.2012 10:25 6,3 C 14,5 C 7,3 C 7,8 C 7,8 C 1,5 C 91 % 90 % 39 % 1017,2 hPa 0,0 l/m 0,6 km/h (0 Bft) SO 135 0 min 0,2 UV-I 4,9 C 7,8 C 0,0 km/h (0 Bft)
17.10.2012 10:30 6,4 C 14,5 C 7,5 C 8,0 C 8,0 C 1,6 C 90 % 90 % 42 % 1017,2 hPa 0,0 l/m 0,3 km/h (0 Bft) SW 225 0 min 0,2 UV-I 4,9 C 8,0 C 2,4 km/h (1 Bft)
17.10.2012 10:35 6,7 C 14,4 C 7,6 C 8,0 C 8,0 C 1,3 C 89 % 89 % 34 % 1017,2 hPa 0,0 l/m 0,5 km/h (0 Bft) N-NO 22 0 min 0,2 UV-I 5,0 C 8,0 C 0,0 km/h (0 Bft)
17.10.2012 10:40 6,7 C 14,5 C 7,6 C 8,3 C 8,3 C 1,6 C 88 % 88 % 42 % 1017,2 hPa 0,0 l/m 0,5 km/h (0 Bft) O-SO 112 0 min 0,2 UV-I 4,9 C 8,3 C 0,0 km/h (0 Bft)
17.10.2012 10:45 6,9 C 14,5 C 7,7 C 8,6 C 8,6 C 1,7 C 87 % 88 % 45 % 1017,2 hPa 0,0 l/m 0,5 km/h (0 Bft) O 90 0 min 0,2 UV-I 4,9 C 8,6 C 1,8 km/h (1 Bft)
17.10.2012 10:50 7,2 C 14,5 C 7,9 C 8,8 C 8,8 C 1,6 C 87 % 88 % 42 % 1017,2 hPa 0,0 l/m 0,5 km/h (0 Bft) N-NO 22 0 min 0,3 UV-I 5,2 C 8,8 C 0,0 km/h (0 Bft)
17.10.2012 10:55 7,6 C 14,5 C 8,2 C 9,3 C 9,3 C 1,7 C 85 % 88 % 45 % 1017,2 hPa 0,0 l/m 0,8 km/h (0 Bft) S-SO 157 0 min 0,3 UV-I 5,2 C 9,3 C 0,0 km/h (0 Bft)
17.10.2012 11:00 7,8 C 14,5 C 8,4 C 9,6 C 9,6 C 1,8 C 84 % 87 % 47 % 1017,1 hPa 0,0 l/m 1,0 km/h (0 Bft) NO 45 0 min 0,3 UV-I 5,3 C 9,6 C 5,3 km/h (1 Bft)
17.10.2012 11:05 8,5 C 14,5 C 8,7 C 10,2 C 10,2 C 1,7 C 82 % 87 % 45 % 1017,1 hPa 0,0 l/m 1,9 km/h (1 Bft) O-NO 67 0 min 0,4 UV-I 5,6 C 10,2 C 3,1 km/h (1 Bft)
17.10.2012 11:10 9,1 C 14,5 C 8,9 C 10,6 C 10,6 C 1,5 C 80 % 87 % 39 % 1017,1 hPa 0,0 l/m 2,4 km/h (1 Bft) NO 45 0 min 0,4 UV-I 5,8 C 10,6 C 2,6 km/h (1 Bft)
17.10.2012 11:15 9,4 C 14,5 C 9,1 C 11,1 C 11,1 C 1,7 C 79 % 86 % 45 % 1017,1 hPa 0,0 l/m 1,8 km/h (1 Bft) O-NO 67 0 min 0,4 UV-I 5,9 C 11,1 C 2,3 km/h (1 Bft)
17.10.2012 11:20 9,7 C 14,5 C 9,3 C 11,3 C 11,3 C 1,6 C 78 % 86 % 42 % 1016,9 hPa 0,0 l/m 1,1 km/h (1 Bft) O-NO 67 0 min 0,5 UV-I 6,1 C 11,3 C 0,0 km/h (0 Bft)
17.10.2012 11:25 10,0 C 14,5 C 9,6 C 11,7 C 11,7 C 1,7 C 77 % 85 % 45 % 1016,9 hPa 0,0 l/m 1,0 km/h (0 Bft) NO 45 0 min 0,5 UV-I 6,2 C 11,7 C 4,3 km/h (1 Bft)
17.10.2012 11:30 10,4 C 14,4 C 9,9 C 12,2 C 12,2 C 1,8 C 76 % 85 % 47 % 1016,9 hPa 0,0 l/m 1,3 km/h (1 Bft) NW 315 0 min 0,5 UV-I 6,4 C 12,2 C 3,1 km/h (1 Bft)
17.10.2012 11:35 10,7 C 14,4 C 10,3 C 12,8 C 12,8 C 2,1 C 75 % 83 % 55 % 1016,9 hPa 0,0 l/m 1,4 km/h (1 Bft) N-NO 22 0 min 0,5 UV-I 6,5 C 12,8 C 0,0 km/h (0 Bft)
17.10.2012 11:40 11,1 C 14,4 C 10,7 C 13,0 C 13,0 C 1,9 C 75 % 83 % 50 % 1016,9 hPa 0,0 l/m 1,3 km/h (1 Bft) O-NO 67 0 min 0,6 UV-I 6,8 C 13,0 C 2,4 km/h (1 Bft)
17.10.2012 11:45 11,4 C 14,4 C 10,9 C 13,6 C 13,6 C 2,2 C 73 % 83 % 58 % 1016,9 hPa 0,0 l/m 1,0 km/h (0 Bft) O-NO 67 0 min 0,6 UV-I 6,7 C 13,6 C 0,0 km/h (0 Bft)
17.10.2012 11:50 11,6 C 14,4 C 11,1 C 13,9 C 13,9 C 2,3 C 73 % 82 % 61 % 1016,9 hPa 0,0 l/m 0,8 km/h (0 Bft) O-NO 67 0 min 0,7 UV-I 6,9 C 13,9 C 5,8 km/h (2 Bft)
17.10.2012 11:55 12,0 C 14,4 C 11,3 C 13,9 C 13,9 C 1,9 C 71 % 80 % 50 % 1016,9 hPa 0,0 l/m 1,9 km/h (1 Bft) O-NO 67 0 min 0,7 UV-I 6,9 C 13,9 C 4,5 km/h (1 Bft)
17.10.2012 12:00 12,3 C 14,4 C 11,6 C 14,0 C 14,0 C 1,7 C 71 % 80 % 45 % 1016,4 hPa 0,0 l/m 2,7 km/h (1 Bft) NO 45 0 min 0,7 UV-I 7,2 C 14,0 C 3,7 km/h (1 Bft)
17.10.2012 12:05 12,5 C 14,4 C 11,9 C 14,6 C 14,6 C 2,1 C 71 % 80 % 55 % 1016,4 hPa 0,0 l/m 1,8 km/h (1 Bft) O 90 0 min 0,8 UV-I 7,4 C 14,6 C 4,0 km/h (1 Bft)
17.10.2012 12:10 12,7 C 14,4 C 11,9 C 14,8 C 14,8 C 2,1 C 70 % 79 % 55 % 1016,4 hPa 0,0 l/m 1,3 km/h (1 Bft) N-NO 22 0 min 0,8 UV-I 7,4 C 14,8 C 0,0 km/h (0 Bft)
17.10.2012 12:15 13,1 C 14,5 C 12,3 C 15,1 C 15,1 C 2,0 C 69 % 79 % 53 % 1016,4 hPa 0,0 l/m 1,6 km/h (1 Bft) O-NO 67 0 min 0,8 UV-I 7,5 C 15,1 C 5,5 km/h (1 Bft)
17.10.2012 12:20 13,2 C 14,5 C 12,5 C 15,8 C 15,8 C 2,6 C 70 % 79 % 68 % 1016,3 hPa 0,0 l/m 1,6 km/h (1 Bft) NO 45 0 min 0,9 UV-I 7,9 C 15,8 C 0,0 km/h (0 Bft)
17.10.2012 12:25 13,5 C 14,5 C 12,7 C 17,7 C 17,7 C 4,2 C 69 % 78 % 100 % 1016,3 hPa 0,0 l/m 1,4 km/h (1 Bft) O-NO 67 5 min 1,0 UV-I 7,9 C 17,7 C 0,0 km/h (0 Bft)
17.10.2012 12:30 13,7 C 14,5 C 12,8 C 17,9 C 17,9 C 4,2 C 69 % 78 % 100 % 1016,3 hPa 0,0 l/m 1,0 km/h (0 Bft) NO 45 5 min 0,9 UV-I 8,1 C 17,9 C 2,1 km/h (1 Bft)
17.10.2012 12:35 13,8 C 14,5 C 12,8 C 17,4 C 17,4 C 3,6 C 68 % 78 % 95 % 1016,3 hPa 0,0 l/m 0,6 km/h (0 Bft) O 90 5 min 0,8 UV-I 8,0 C 17,4 C 2,6 km/h (1 Bft)
17.10.2012 12:46 14,3 C 14,5 C 13,1 C 16,9 C 16,9 C 2,6 C 69 % 78 % 68 % 1016,1 hPa 0,0 l/m 0,5 km/h (0 Bft) N 0 0 min 0,8 UV-I 8,7 C 16,9 C 0,0 km/h (0 Bft)
17.10.2012 12:55 14,7 C 14,4 C 13,7 C 17,9 C 17,9 C 3,2 C 68 % 78 % 84 % 1016,1 hPa 0,0 l/m 0,5 km/h (0 Bft) O-NO 67 0 min 1,0 UV-I 8,9 C 17,9 C 2,3 km/h (1 Bft)
17.10.2012 13:00 14,9 C 14,5 C 14,0 C 18,9 C 18,9 C 4,0 C 67 % 77 % 100 % 1016,1 hPa 0,0 l/m 0,5 km/h (0 Bft) O-NO 67 5 min 1,1 UV-I 8,8 C 18,9 C 0,0 km/h (0 Bft)
17.10.2012 13:05 15,2 C 14,5 C 14,3 C 20,9 C 20,9 C 5,7 C 66 % 76 % 100 % 1016,1 hPa 0,0 l/m 0,8 km/h (0 Bft) N-NO 22 5 min 1,1 UV-I 8,9 C 20,9 C 1,8 km/h (1 Bft)
17.10.2012 13:10 15,5 C 14,5 C 14,2 C 21,7 C 21,7 C 6,2 C 66 % 74 % 100 % 1016,1 hPa 0,0 l/m 1,1 km/h (1 Bft) S 180 5 min 1,1 UV-I 9,2 C 21,7 C 2,9 km/h (1 Bft)
17.10.2012 13:15 15,6 C 14,5 C 14,7 C 22,6 C 22,6 C 7,0 C 65 % 74 % 100 % 1016,1 hPa 0,0 l/m 0,8 km/h (0 Bft) W-SW 247 5 min 1,0 UV-I 9,0 C 22,6 C 2,1 km/h (1 Bft)
17.10.2012 13:20 15,7 C 14,5 C 14,7 C 22,9 C 22,9 C 7,2 C 64 % 73 % 100 % 1015,8 hPa 0,0 l/m 1,1 km/h (1 Bft) SW 225 5 min 1,0 UV-I 8,9 C 22,9 C 8,7 km/h (2 Bft)
17.10.2012 13:25 16,0 C 14,5 C 14,6 C 22,4 C 22,4 C 6,4 C 62 % 73 % 100 % 1015,8 hPa 0,0 l/m 2,4 km/h (1 Bft) S 180 5 min 1,0 UV-I 8,7 C 22,4 C 6,8 km/h (2 Bft)
17.10.2012 13:30 16,1 C 14,5 C 14,8 C 22,6 C 22,6 C 6,5 C 63 % 72 % 100 % 1015,8 hPa 0,0 l/m 2,1 km/h (1 Bft) O-SO 112 5 min 1,0 UV-I 9,1 C 22,6 C 0,0 km/h (0 Bft)
17.10.2012 13:35 16,4 C 14,6 C 15,2 C 22,5 C 22,5 C 6,1 C 63 % 73 % 100 % 1015,8 hPa 0,0 l/m 1,6 km/h (1 Bft) W-SW 247 5 min 1,0 UV-I 9,3 C 22,5 C 1,9 km/h (1 Bft)
17.10.2012 13:40 16,5 C 14,6 C 15,3 C 22,0 C 22,0 C 5,5 C 62 % 72 % 100 % 1016,4 hPa 0,0 l/m 1,8 km/h (1 Bft) S 180 5 min 1,0 UV-I 9,2 C 22,0 C 2,1 km/h (1 Bft)
17.10.2012 13:45 16,7 C 14,6 C 15,5 C 21,1 C 21,1 C 4,4 C 61 % 71 % 100 % 1016,4 hPa 0,0 l/m 2,7 km/h (1 Bft) S-SO 157 5 min 0,9 UV-I 9,1 C 21,1 C 1,9 km/h (1 Bft)
17.10.2012 13:50 16,8 C 14,6 C 15,5 C 21,2 C 21,2 C 4,4 C 61 % 71 % 100 % 1016,4 hPa 0,0 l/m 2,1 km/h (1 Bft) O 90 5 min 0,9 UV-I 9,2 C 21,2 C 9,8 km/h (2 Bft)
17.10.2012 13:55 16,9 C 14,6 C 15,7 C 21,1 C 21,1 C 4,2 C 61 % 70 % 100 % 1016,4 hPa 0,0 l/m 1,4 km/h (1 Bft) N-NW 337 5 min 0,9 UV-I 9,3 C 21,1 C 0,0 km/h (0 Bft)
17.10.2012 14:00 17,1 C 14,6 C 15,9 C 20,9 C 20,9 C 3,8 C 60 % 70 % 100 % 1015,7 hPa 0,0 l/m 1,8 km/h (1 Bft) SW 225 5 min 0,9 UV-I 9,3 C 20,9 C 1,6 km/h (1 Bft)
17.10.2012 14:05 17,1 C 14,7 C 16,0 C 20,9 C 20,9 C 3,8 C 61 % 70 % 100 % 1015,7 hPa 0,0 l/m 1,4 km/h (1 Bft) NW 315 5 min 0,9 UV-I 9,5 C 20,9 C 0,0 km/h (0 Bft)
17.10.2012 14:10 17,2 C 14,7 C 16,1 C 21,3 C 21,3 C 4,1 C 61 % 70 % 100 % 1015,7 hPa 0,0 l/m 0,8 km/h (0 Bft) W-NW 292 5 min 0,9 UV-I 9,6 C 21,3 C 0,0 km/h (0 Bft)
17.10.2012 14:15 17,4 C 14,7 C 16,4 C 22,1 C 22,1 C 4,7 C 60 % 69 % 100 % 1015,7 hPa 0,0 l/m 1,3 km/h (1 Bft) O-NO 67 5 min 0,9 UV-I 9,6 C 22,1 C 0,0 km/h (0 Bft)
17.10.2012 14:20 17,6 C 14,7 C 16,5 C 22,5 C 22,5 C 4,9 C 60 % 69 % 100 % 1015,4 hPa 0,0 l/m 1,6 km/h (1 Bft) O-SO 112 5 min 0,9 UV-I 9,7 C 22,5 C 2,1 km/h (1 Bft)
17.10.2012 14:25 17,7 C 14,8 C 16,8 C 23,1 C 23,1 C 5,4 C 59 % 68 % 100 % 1015,4 hPa 0,0 l/m 1,1 km/h (1 Bft) W-SW 247 5 min 0,9 UV-I 9,6 C 23,1 C 3,5 km/h (1 Bft)
17.10.2012 14:30 17,9 C 14,8 C 16,9 C 23,0 C 23,0 C 5,1 C 59 % 68 % 100 % 1015,4 hPa 0,0 l/m 1,1 km/h (1 Bft) O-SO 112 5 min 0,9 UV-I 9,8 C 23,0 C 0,0 km/h (0 Bft)
17.10.2012 14:35 18,1 C 14,7 C 16,8 C 22,7 C 22,7 C 4,6 C 59 % 67 % 100 % 1015,4 hPa 0,0 l/m 2,3 km/h (1 Bft) SW 225 5 min 0,9 UV-I 10,0 C 22,7 C 5,1 km/h (1 Bft)
17.10.2012 14:40 18,1 C 14,7 C 16,9 C 22,7 C 22,7 C 4,6 C 59 % 67 % 100 % 1015,8 hPa 0,0 l/m 2,3 km/h (1 Bft) O 90 5 min 0,8 UV-I 10,0 C 22,7 C 3,4 km/h (1 Bft)
17.10.2012 14:45 18,1 C 14,8 C 16,7 C 22,5 C 22,5 C 4,4 C 58 % 67 % 100 % 1015,8 hPa 0,0 l/m 1,8 km/h (1 Bft) O-NO 67 5 min 0,7 UV-I 9,7 C 22,5 C 0,0 km/h (0 Bft)
17.10.2012 14:50 18,0 C 14,8 C 16,8 C 22,0 C 22,0 C 4,0 C 59 % 68 % 100 % 1015,8 hPa 0,0 l/m 1,1 km/h (1 Bft) S-SW 202 5 min 0,6 UV-I 9,9 C 22,0 C 0,0 km/h (0 Bft)
17.10.2012 14:55 18,0 C 14,8 C 16,8 C 22,0 C 22,0 C 4,0 C 59 % 68 % 100 % 1015,8 hPa 0,0 l/m 1,1 km/h (1 Bft) S-SW 202 5 min 0,6 UV-I 9,9 C 22,0 C 0,0 km/h (0 Bft)
17.10.2012 15:00 18,1 C 14,8 C 16,7 C 21,8 C 21,8 C 3,7 C 59 % 68 % 97 % 1015,8 hPa 0,0 l/m 1,1 km/h (1 Bft) W-SW 247 5 min 0,6 UV-I 10,0 C 21,8 C 4,0 km/h (1 Bft)
17.10.2012 15:05 18,2 C 14,8 C 16,5 C 21,4 C 21,4 C 3,2 C 58 % 67 % 84 % 1015,4 hPa 0,0 l/m 1,3 km/h (1 Bft) N-NW 337 0 min 0,6 UV-I 9,8 C 21,4 C 0,0 km/h (0 Bft)
17.10.2012 15:10 18,1 C 14,8 C 16,4 C 20,4 C 20,4 C 2,3 C 59 % 68 % 61 % 1015,4 hPa 0,0 l/m 1,0 km/h (0 Bft) SO 135 0 min 0,6 UV-I 10,0 C 20,4 C 1,8 km/h (1 Bft)
17.10.2012 15:15 18,1 C 14,9 C 16,3 C 19,9 C 19,9 C 1,8 C 59 % 68 % 47 % 1015,4 hPa 0,0 l/m 0,3 km/h (0 Bft) W-SW 247 0 min 0,5 UV-I 10,0 C 19,9 C 0,0 km/h (0 Bft)
17.10.2012 15:20 18,1 C 14,9 C 16,4 C 19,7 C 19,7 C 1,6 C 59 % 68 % 42 % 1015,4 hPa 0,0 l/m 0,3 km/h (0 Bft) SO 135 0 min 0,5 UV-I 10,0 C 19,7 C 0,0 km/h (0 Bft)
17.10.2012 15:25 18,1 C 14,9 C 16,5 C 19,8 C 19,8 C 1,7 C 60 % 68 % 45 % 1015,8 hPa 0,0 l/m 0,2 km/h (0 Bft) O-NO 67 0 min 0,5 UV-I 10,2 C 19,8 C 0,0 km/h (0 Bft)
17.10.2012 15:30 18,2 C 14,9 C 16,4 C 19,7 C 19,7 C 1,5 C 60 % 69 % 39 % 1015,8 hPa 0,0 l/m 0,2 km/h (0 Bft) N-NW 337 0 min 0,4 UV-I 10,3 C 19,7 C 0,0 km/h (0 Bft)
17.10.2012 15:35 18,2 C 14,9 C 16,4 C 19,4 C 19,4 C 1,2 C 60 % 69 % 32 % 1015,8 hPa 0,0 l/m 0,2 km/h (0 Bft) W-NW 292 0 min 0,4 UV-I 10,3 C 19,4 C 0,0 km/h (0 Bft)
17.10.2012 15:40 18,1 C 15,0 C 16,3 C 19,1 C 19,1 C 1,0 C 60 % 70 % 26 % 1015,8 hPa 0,0 l/m 0,2 km/h (0 Bft) W-SW 247 0 min 0,4 UV-I 10,2 C 19,1 C 0,0 km/h (0 Bft)
17.10.2012 15:45 18,1 C 15,0 C 16,3 C 18,9 C 18,9 C 0,8 C 60 % 70 % 21 % 1015,6 hPa 0,0 l/m 0,0 km/h (0 Bft) O 90 0 min 0,2 UV-I 10,2 C 18,9 C 0,0 km/h (0 Bft)
17.10.2012 15:50 18,0 C 15,0 C 16,0 C 18,8 C 18,8 C 0,8 C 60 % 71 % 21 % 1015,6 hPa 0,0 l/m 0,0 km/h (0 Bft) NO 45 0 min 0,2 UV-I 10,1 C 18,8 C 0,0 km/h (0 Bft)
17.10.2012 15:55 18,0 C 15,2 C 16,0 C 18,7 C 18,7 C 0,7 C 61 % 71 % 18 % 1015,6 hPa 0,0 l/m 0,3 km/h (0 Bft) O-NO 67 0 min 0,2 UV-I 10,4 C 18,7 C 2,6 km/h (1 Bft)
17.10.2012 16:00 17,9 C 15,2 C 16,0 C 18,5 C 18,5 C 0,6 C 61 % 71 % 16 % 1015,6 hPa 0,0 l/m 0,8 km/h (0 Bft) O-NO 67 0 min 0,2 UV-I 10,3 C 18,5 C 0,0 km/h (0 Bft)
17.10.2012 16:05 17,7 C 15,2 C 15,9 C 18,4 C 18,4 C 0,7 C 62 % 71 % 18 % 1015,1 hPa 0,0 l/m 0,6 km/h (0 Bft) O-NO 67 0 min 0,2 UV-I 10,3 C 18,4 C 0,0 km/h (0 Bft)
17.10.2012 16:10 17,7 C 15,2 C 15,8 C 18,3 C 18,3 C 0,6 C 62 % 72 % 16 % 1015,1 hPa 0,0 l/m 0,0 km/h (0 Bft) NO 45 0 min 0,1 UV-I 10,3 C 18,3 C 0,0 km/h (0 Bft)
17.10.2012 16:15 17,7 C 15,2 C 15,7 C 18,2 C 18,2 C 0,5 C 62 % 72 % 13 % 1015,1 hPa 0,0 l/m 0,0 km/h (0 Bft) O-NO 67 0 min 0,0 UV-I 10,3 C 18,2 C 0,0 km/h (0 Bft)
17.10.2012 16:20 17,6 C 15,3 C 15,5 C 17,8 C 17,8 C 0,2 C 63 % 72 % 5 % 1015,1 hPa 0,0 l/m 0,0 km/h (0 Bft) NO 45 0 min 0,0 UV-I 10,5 C 17,8 C 0,0 km/h (0 Bft)
17.10.2012 16:25 17,5 C 15,3 C 15,4 C 17,6 C 17,6 C 0,1 C 63 % 73 % 3 % 1015,2 hPa 0,0 l/m 0,0 km/h (0 Bft) O-SO 112 0 min 0,0 UV-I 10,4 C 17,6 C 0,0 km/h (0 Bft)
17.10.2012 16:30 17,3 C 15,3 C 15,2 C 17,3 C 17,3 C 0,0 C 64 % 75 % 0 % 1015,2 hPa 0,0 l/m 0,0 km/h (0 Bft) N-NO 22 0 min 0,0 UV-I 10,4 C 17,3 C 0,0 km/h (0 Bft)
17.10.2012 16:35 17,2 C 15,3 C 15,2 C 17,2 C 17,2 C 0,0 C 64 % 75 % 0 % 1015,2 hPa 0,0 l/m 0,0 km/h (0 Bft) W 270 0 min 0,0 UV-I 10,3 C 17,2 C 0,0 km/h (0 Bft)
17.10.2012 16:40 17,1 C 15,4 C 15,1 C 17,1 C 17,0 C 0,0 C 65 % 76 % 0 % 1015,2 hPa 0,0 l/m 0,0 km/h (0 Bft) O-NO 67 0 min 0,0 UV-I 10,5 C 17,0 C 0,0 km/h (0 Bft)
17.10.2012 16:45 17,1 C 15,4 C 15,1 C 17,1 C 17,0 C 0,0 C 66 % 76 % 0 % 1015,4 hPa 0,0 l/m 0,3 km/h (0 Bft) O-NO 67 0 min 0,0 UV-I 10,7 C 17,0 C 0,0 km/h (0 Bft)
17.10.2012 16:50 16,8 C 15,4 C 15,0 C 16,9 C 16,9 C 0,1 C 67 % 77 % 3 % 1015,4 hPa 0,0 l/m 0,3 km/h (0 Bft) N-NW 337 0 min 0,0 UV-I 10,6 C 16,9 C 0,0 km/h (0 Bft)
17.10.2012 16:55 16,7 C 15,4 C 15,1 C 16,8 C 16,8 C 0,1 C 67 % 77 % 3 % 1015,4 hPa 0,0 l/m 0,0 km/h (0 Bft) O 90 0 min 0,0 UV-I 10,5 C 16,8 C 0,0 km/h (0 Bft)
17.10.2012 17:00 16,7 C 15,4 C 15,0 C 16,7 C 16,7 C 0,0 C 68 % 77 % 0 % 1015,4 hPa 0,0 l/m 0,0 km/h (0 Bft) O-SO 112 0 min 0,0 UV-I 10,8 C 16,7 C 0,0 km/h (0 Bft)
17.10.2012 17:05 16,5 C 15,4 C 14,9 C 16,6 C 16,6 C 0,1 C 68 % 77 % 3 % 1015,4 hPa 0,0 l/m 0,2 km/h (0 Bft) O-SO 112 0 min 0,0 UV-I 10,6 C 16,6 C 0,0 km/h (0 Bft)
17.10.2012 17:10 16,4 C 15,5 C 14,8 C 16,5 C 16,5 C 0,1 C 68 % 78 % 3 % 1015,4 hPa 0,0 l/m 0,3 km/h (0 Bft) O-SO 112 0 min 0,0 UV-I 10,5 C 16,5 C 0,0 km/h (0 Bft)
17.10.2012 17:15 16,4 C 15,5 C 14,7 C 16,4 C 16,4 C 0,0 C 68 % 77 % 0 % 1015,4 hPa 0,0 l/m 0,2 km/h (0 Bft) N-NO 22 0 min 0,0 UV-I 10,5 C 16,4 C 0,0 km/h (0 Bft)
17.10.2012 17:20 16,3 C 15,5 C 14,6 C 16,3 C 16,2 C 0,0 C 68 % 78 % 0 % 1015,4 hPa 0,0 l/m 0,0 km/h (0 Bft) SO 135 0 min 0,0 UV-I 10,4 C 16,2 C 0,0 km/h (0 Bft)
17.10.2012 17:25 16,3 C 15,5 C 14,7 C 16,2 C 16,1 C 0,0 C 68 % 78 % 0 % 1015,2 hPa 0,0 l/m 0,0 km/h (0 Bft) O-NO 67 0 min 0,0 UV-I 10,4 C 16,1 C 0,0 km/h (0 Bft)
17.10.2012 17:30 16,1 C 15,5 C 14,6 C 16,1 C 16,1 C 0,0 C 68 % 78 % 0 % 1015,2 hPa 0,0 l/m 0,6 km/h (0 Bft) O-SO 112 0 min 0,0 UV-I 10,2 C 16,1 C 2,9 km/h (1 Bft)
17.10.2012 17:35 16,1 C 15,5 C 14,5 C 16,1 C 16,1 C 0,0 C 68 % 78 % 0 % 1015,2 hPa 0,0 l/m 1,1 km/h (1 Bft) O-NO 67 0 min 0,0 UV-I 10,2 C 16,1 C 2,4 km/h (1 Bft)
17.10.2012 17:40 16,0 C 15,5 C 14,4 C 16,0 C 16,0 C 0,0 C 68 % 78 % 0 % 1015,2 hPa 0,0 l/m 1,0 km/h (0 Bft) O 90 0 min 0,0 UV-I 10,1 C 16,0 C 0,0 km/h (0 Bft)
17.10.2012 17:45 16,1 C 15,6 C 14,3 C 16,0 C 15,8 C 0,0 C 68 % 78 % 0 % 1015,2 hPa 0,0 l/m 0,2 km/h (0 Bft) O 90 0 min 0,0 UV-I 10,2 C 15,8 C 0,0 km/h (0 Bft)
17.10.2012 17:50 15,8 C 15,6 C 14,1 C 15,7 C 15,6 C 0,0 C 68 % 78 % 0 % 1015,2 hPa 0,0 l/m 0,2 km/h (0 Bft) O 90 0 min 0,0 UV-I 9,9 C 15,6 C 0,0 km/h (0 Bft)
17.10.2012 17:55 15,7 C 15,6 C 14,1 C 15,7 C 15,6 C 0,0 C 68 % 78 % 0 % 1015,2 hPa 0,0 l/m 0,3 km/h (0 Bft) O-NO 67 0 min 0,0 UV-I 9,8 C 15,6 C 0,0 km/h (0 Bft)
17.10.2012 18:00 15,5 C 15,6 C 13,9 C 15,4 C 15,3 C 0,0 C 69 % 78 % 0 % 1015,2 hPa 0,0 l/m 0,3 km/h (0 Bft) N-NO 22 0 min 0,0 UV-I 9,8 C 15,3 C 0,0 km/h (0 Bft)
17.10.2012 18:05 15,3 C 15,6 C 13,7 C 15,2 C 15,0 C 0,0 C 70 % 78 % 0 % 1015,1 hPa 0,0 l/m 0,0 km/h (0 Bft) O-NO 67 0 min 0,0 UV-I 9,9 C 15,0 C 0,0 km/h (0 Bft)
17.10.2012 18:10 15,1 C 15,6 C 13,6 C 14,9 C 14,6 C 0,0 C 69 % 79 % 0 % 1015,1 hPa 0,0 l/m 0,0 km/h (0 Bft) N-NO 22 0 min 0,0 UV-I 9,5 C 14,6 C 0,0 km/h (0 Bft)
17.10.2012 18:15 15,1 C 15,6 C 13,5 C 14,9 C 14,4 C 0,0 C 69 % 79 % 0 % 1015,1 hPa 0,0 l/m 0,0 km/h (0 Bft) O 90 0 min 0,0 UV-I 9,5 C 14,4 C 0,0 km/h (0 Bft)
17.10.2012 18:20 14,8 C 15,7 C 13,2 C 14,5 C 14,0 C 0,0 C 70 % 80 % 0 % 1015,1 hPa 0,0 l/m 0,0 km/h (0 Bft) N-NO 22 0 min 0,0 UV-I 9,4 C 14,0 C 0,0 km/h (0 Bft)
17.10.2012 18:25 14,7 C 15,7 C 13,1 C 14,4 C 13,7 C 0,0 C 70 % 80 % 0 % 1014,8 hPa 0,0 l/m 0,0 km/h (0 Bft) N-NO 22 0 min 0,0 UV-I 9,3 C 13,7 C 0,0 km/h (0 Bft)
17.10.2012 18:30 14,4 C 15,7 C 12,9 C 14,1 C 13,4 C 0,0 C 71 % 80 % 0 % 1014,8 hPa 0,0 l/m 0,2 km/h (0 Bft) O-NO 67 0 min 0,0 UV-I 9,2 C 13,4 C 0,0 km/h (0 Bft)
17.10.2012 18:35 14,2 C 15,7 C 12,8 C 13,9 C 13,2 C 0,0 C 71 % 80 % 0 % 1014,8 hPa 0,0 l/m 0,2 km/h (0 Bft) N-NW 337 0 min 0,0 UV-I 9,0 C 13,2 C 0,0 km/h (0 Bft)
17.10.2012 18:46 13,7 C 15,7 C 12,3 C 13,3 C 12,4 C 0,0 C 72 % 81 % 0 % 1015,8 hPa 0,0 l/m 0,2 km/h (0 Bft) N 0 0 min 0,0 UV-I 8,7 C 12,4 C 0,0 km/h (0 Bft)
17.10.2012 18:55 13,5 C 15,7 C 12,3 C 13,1 C 12,2 C 0,0 C 73 % 81 % 0 % 1015,8 hPa 0,0 l/m 0,2 km/h (0 Bft) O 90 0 min 0,0 UV-I 8,8 C 12,2 C 0,0 km/h (0 Bft)
17.10.2012 19:00 13,2 C 15,8 C 12,1 C 12,8 C 12,0 C 0,0 C 73 % 81 % 0 % 1015,8 hPa 0,0 l/m 0,0 km/h (0 Bft) O-NO 67 0 min 0,0 UV-I 8,5 C 12,0 C 0,0 km/h (0 Bft)
17.10.2012 19:05 13,1 C 15,9 C 12,0 C 12,7 C 11,8 C 0,0 C 73 % 81 % 0 % 1015,2 hPa 0,0 l/m 0,0 km/h (0 Bft) O-NO 67 0 min 0,0 UV-I 8,4 C 11,8 C 0,0 km/h (0 Bft)
17.10.2012 19:10 12,8 C 15,8 C 11,6 C 12,4 C 11,5 C 0,0 C 73 % 81 % 0 % 1015,2 hPa 0,0 l/m 0,0 km/h (0 Bft) N 360 0 min 0,0 UV-I 8,1 C 11,5 C 0,0 km/h (0 Bft)
17.10.2012 19:15 12,7 C 15,8 C 11,5 C 12,3 C 11,4 C 0,0 C 74 % 82 % 0 % 1015,2 hPa 0,0 l/m 0,0 km/h (0 Bft) N 360 0 min 0,0 UV-I 8,2 C 11,4 C 0,0 km/h (0 Bft)
17.10.2012 19:20 12,4 C 15,8 C 11,6 C 12,0 C 11,3 C 0,0 C 75 % 82 % 0 % 1015,2 hPa 0,0 l/m 0,0 km/h (0 Bft) S 180 0 min 0,0 UV-I 8,1 C 11,3 C 0,0 km/h (0 Bft)
17.10.2012 19:25 12,4 C 15,9 C 11,6 C 12,0 C 11,2 C 0,0 C 76 % 82 % 0 % 1015,2 hPa 0,0 l/m 0,0 km/h (0 Bft) W 270 0 min 0,0 UV-I 8,3 C 11,2 C 0,0 km/h (0 Bft)
17.10.2012 19:30 12,3 C 15,9 C 11,4 C 11,9 C 11,1 C 0,0 C 77 % 83 % 0 % 1015,2 hPa 0,0 l/m 0,2 km/h (0 Bft) O-SO 112 0 min 0,0 UV-I 8,4 C 11,1 C 0,0 km/h (0 Bft)
17.10.2012 19:35 12,2 C 15,9 C 11,4 C 11,8 C 11,1 C 0,0 C 77 % 83 % 0 % 1015,2 hPa 0,0 l/m 0,2 km/h (0 Bft) W 270 0 min 0,0 UV-I 8,3 C 11,1 C 0,0 km/h (0 Bft)
17.10.2012 19:40 12,1 C 15,9 C 11,3 C 11,7 C 10,9 C 0,0 C 77 % 83 % 0 % 1015,2 hPa 0,0 l/m 0,0 km/h (0 Bft) W 270 0 min 0,0 UV-I 8,2 C 10,9 C 3,1 km/h (1 Bft)
17.10.2012 19:45 12,1 C 15,9 C 11,2 C 11,8 C 11,1 C 0,0 C 77 % 83 % 0 % 1015,1 hPa 0,0 l/m 0,2 km/h (0 Bft) O-NO 67 0 min 0,0 UV-I 8,2 C 11,1 C 0,0 km/h (0 Bft)
17.10.2012 19:50 12,0 C 15,9 C 11,3 C 11,8 C 11,3 C 0,0 C 77 % 83 % 0 % 1015,1 hPa 0,0 l/m 0,2 km/h (0 Bft) O-NO 67 0 min 0,0 UV-I 8,1 C 11,3 C 0,0 km/h (0 Bft)
17.10.2012 19:55 12,0 C 15,9 C 11,3 C 11,8 C 11,5 C 0,0 C 77 % 83 % 0 % 1015,1 hPa 0,0 l/m 0,2 km/h (0 Bft) O-SO 112 0 min 0,0 UV-I 8,1 C 11,5 C 0,0 km/h (0 Bft)
17.10.2012 20:00 12,0 C 15,9 C 11,3 C 11,9 C 11,7 C 0,0 C 77 % 83 % 0 % 1015,1 hPa 0,0 l/m 0,2 km/h (0 Bft) O-SO 112 0 min 0,0 UV-I 8,1 C 11,7 C 0,0 km/h (0 Bft)
17.10.2012 20:05 12,1 C 15,9 C 11,5 C 12,0 C 11,8 C 0,0 C 77 % 84 % 0 % 1015,3 hPa 0,0 l/m 0,2 km/h (0 Bft) N-NO 22 0 min 0,0 UV-I 8,2 C 11,8 C 0,0 km/h (0 Bft)
17.10.2012 20:10 12,3 C 15,9 C 11,6 C 12,2 C 12,0 C 0,0 C 77 % 84 % 0 % 1015,3 hPa 0,0 l/m 0,2 km/h (0 Bft) W 270 0 min 0,0 UV-I 8,4 C 12,0 C 0,0 km/h (0 Bft)
17.10.2012 20:15 12,3 C 15,9 C 11,7 C 12,2 C 12,1 C 0,0 C 77 % 83 % 0 % 1015,3 hPa 0,0 l/m 0,2 km/h (0 Bft) SW 225 0 min 0,0 UV-I 8,4 C 12,1 C 0,0 km/h (0 Bft)
17.10.2012 20:20 12,2 C 15,9 C 11,7 C 12,2 C 12,1 C 0,0 C 77 % 83 % 0 % 1015,3 hPa 0,0 l/m 0,2 km/h (0 Bft) S 180 0 min 0,0 UV-I 8,3 C 12,1 C 0,0 km/h (0 Bft)
17.10.2012 20:25 12,3 C 15,9 C 11,7 C 12,3 C 12,2 C 0,0 C 77 % 83 % 0 % 1015,3 hPa 0,0 l/m 0,3 km/h (0 Bft) S-SW 202 0 min 0,0 UV-I 8,4 C 12,2 C 3,7 km/h (1 Bft)
17.10.2012 20:30 12,3 C 15,9 C 11,8 C 12,4 C 12,4 C 0,1 C 77 % 83 % 0 % 1015,3 hPa 0,0 l/m 0,2 km/h (0 Bft) S 180 0 min 0,0 UV-I 8,4 C 12,4 C 1,8 km/h (1 Bft)
17.10.2012 20:35 12,4 C 15,9 C 11,9 C 12,6 C 12,6 C 0,2 C 77 % 83 % 0 % 1015,3 hPa 0,0 l/m 0,3 km/h (0 Bft) W-SW 247 0 min 0,0 UV-I 8,5 C 12,6 C 0,0 km/h (0 Bft)
17.10.2012 20:40 12,5 C 15,9 C 12,0 C 12,7 C 12,7 C 0,2 C 76 % 83 % 0 % 1015,3 hPa 0,0 l/m 0,3 km/h (0 Bft) W 270 0 min 0,0 UV-I 8,4 C 12,7 C 0,0 km/h (0 Bft)
17.10.2012 20:45 12,5 C 15,9 C 12,0 C 12,8 C 12,8 C 0,3 C 76 % 82 % 0 % 1015,2 hPa 0,0 l/m 0,3 km/h (0 Bft) S 180 0 min 0,0 UV-I 8,4 C 12,8 C 2,7 km/h (1 Bft)
17.10.2012 20:50 12,7 C 15,9 C 12,1 C 12,9 C 12,9 C 0,2 C 76 % 82 % 0 % 1015,2 hPa 0,0 l/m 0,2 km/h (0 Bft) NO 45 0 min 0,0 UV-I 8,6 C 12,9 C 0,0 km/h (0 Bft)
17.10.2012 20:55 12,7 C 15,9 C 12,3 C 13,0 C 13,0 C 0,3 C 75 % 82 % 0 % 1015,2 hPa 0,0 l/m 0,3 km/h (0 Bft) W-SW 247 0 min 0,0 UV-I 8,4 C 13,0 C 0,0 km/h (0 Bft)
17.10.2012 21:00 12,8 C 15,9 C 12,3 C 13,1 C 13,1 C 0,3 C 75 % 81 % 0 % 1015,2 hPa 0,0 l/m 0,2 km/h (0 Bft) O 90 0 min 0,0 UV-I 8,5 C 13,1 C 0,0 km/h (0 Bft)
17.10.2012 21:05 12,8 C 15,9 C 12,2 C 13,1 C 13,1 C 0,3 C 75 % 81 % 0 % 1015,1 hPa 0,0 l/m 0,3 km/h (0 Bft) W-NW 292 0 min 0,0 UV-I 8,5 C 13,1 C 0,0 km/h (0 Bft)
17.10.2012 21:10 12,9 C 15,9 C 12,2 C 13,1 C 13,1 C 0,2 C 75 % 81 % 0 % 1015,1 hPa 0,0 l/m 0,3 km/h (0 Bft) NW 315 0 min 0,0 UV-I 8,6 C 13,1 C 0,0 km/h (0 Bft)
17.10.2012 21:15 13,0 C 15,9 C 12,2 C 13,1 C 13,1 C 0,1 C 75 % 81 % 0 % 1015,1 hPa 0,0 l/m 0,2 km/h (0 Bft) W-SW 247 0 min 0,0 UV-I 8,7 C 13,1 C 0,0 km/h (0 Bft)
17.10.2012 21:20 13,0 C 15,9 C 12,3 C 13,0 C 12,9 C 0,0 C 74 % 81 % 0 % 1015,1 hPa 0,0 l/m 0,0 km/h (0 Bft) N-NO 22 0 min 0,0 UV-I 8,5 C 12,9 C 0,0 km/h (0 Bft)
17.10.2012 21:25 13,0 C 15,9 C 12,3 C 12,9 C 12,8 C 0,0 C 74 % 81 % 0 % 1015,2 hPa 0,0 l/m 0,0 km/h (0 Bft) O-NO 67 0 min 0,0 UV-I 8,5 C 12,8 C 0,0 km/h (0 Bft)
17.10.2012 21:30 13,1 C 15,9 C 12,3 C 12,9 C 12,6 C 0,0 C 74 % 81 % 0 % 1015,2 hPa 0,0 l/m 0,3 km/h (0 Bft) N-NW 337 0 min 0,0 UV-I 8,6 C 12,6 C 0,0 km/h (0 Bft)
17.10.2012 21:35 13,0 C 15,8 C 12,3 C 12,8 C 12,5 C 0,0 C 74 % 80 % 0 % 1015,2 hPa 0,0 l/m 0,3 km/h (0 Bft) O 90 0 min 0,0 UV-I 8,5 C 12,5 C 0,0 km/h (0 Bft)
17.10.2012 21:40 13,0 C 15,8 C 12,1 C 12,8 C 12,3 C 0,0 C 73 % 80 % 0 % 1015,2 hPa 0,0 l/m 0,2 km/h (0 Bft) SW 225 0 min 0,0 UV-I 8,3 C 12,3 C 0,0 km/h (0 Bft)
17.10.2012 21:45 13,0 C 15,8 C 12,3 C 12,7 C 12,2 C 0,0 C 73 % 80 % 0 % 1015,6 hPa 0,0 l/m 0,2 km/h (0 Bft) SO 135 0 min 0,0 UV-I 8,3 C 12,2 C 0,0 km/h (0 Bft)
17.10.2012 21:50 13,0 C 15,8 C 12,2 C 12,7 C 12,1 C 0,0 C 73 % 80 % 0 % 1015,6 hPa 0,0 l/m 0,0 km/h (0 Bft) O-NO 67 0 min 0,0 UV-I 8,3 C 12,1 C 0,0 km/h (0 Bft)
17.10.2012 21:55 12,9 C 15,8 C 12,0 C 12,6 C 12,0 C 0,0 C 73 % 80 % 0 % 1015,6 hPa 0,0 l/m 0,0 km/h (0 Bft) O-NO 67 0 min 0,0 UV-I 8,2 C 12,0 C 0,0 km/h (0 Bft)
17.10.2012 22:00 12,8 C 15,8 C 11,9 C 12,5 C 11,8 C 0,0 C 73 % 80 % 0 % 1015,6 hPa 0,0 l/m 0,0 km/h (0 Bft) N 360 0 min 0,0 UV-I 8,1 C 11,8 C 0,0 km/h (0 Bft)
17.10.2012 22:05 12,7 C 15,8 C 12,0 C 12,4 C 11,8 C 0,0 C 73 % 80 % 0 % 1015,8 hPa 0,0 l/m 0,0 km/h (0 Bft) S 180 0 min 0,0 UV-I 8,0 C 11,8 C 0,0 km/h (0 Bft)
17.10.2012 22:10 12,7 C 15,8 C 11,9 C 12,4 C 11,8 C 0,0 C 74 % 80 % 0 % 1015,8 hPa 0,0 l/m 0,0 km/h (0 Bft) SW 225 0 min 0,0 UV-I 8,2 C 11,8 C 0,0 km/h (0 Bft)
17.10.2012 22:15 12,6 C 15,8 C 11,9 C 12,4 C 11,9 C 0,0 C 74 % 81 % 0 % 1015,8 hPa 0,0 l/m 0,0 km/h (0 Bft) S-SW 202 0 min 0,0 UV-I 8,1 C 11,9 C 0,0 km/h (0 Bft)
17.10.2012 22:20 12,4 C 15,9 C 11,8 C 12,2 C 11,8 C 0,0 C 74 % 80 % 0 % 1015,8 hPa 0,0 l/m 0,0 km/h (0 Bft) O-NO 67 0 min 0,0 UV-I 7,9 C 11,8 C 0,0 km/h (0 Bft)
17.10.2012 22:25 12,5 C 16,0 C 11,7 C 12,3 C 11,8 C 0,0 C 75 % 80 % 0 % 1015,4 hPa 0,0 l/m 0,0 km/h (0 Bft) O-SO 112 0 min 0,0 UV-I 8,2 C 11,8 C 0,0 km/h (0 Bft)
17.10.2012 22:30 12,4 C 16,0 C 11,7 C 12,2 C 11,8 C 0,0 C 75 % 81 % 0 % 1015,4 hPa 0,0 l/m 0,0 km/h (0 Bft) O-SO 112 0 min 0,0 UV-I 8,1 C 11,8 C 0,0 km/h (0 Bft)
17.10.2012 22:35 12,4 C 16,0 C 11,7 C 12,2 C 11,9 C 0,0 C 75 % 81 % 0 % 1015,4 hPa 0,0 l/m 0,0 km/h (0 Bft) O-NO 67 0 min 0,0 UV-I 8,1 C 11,9 C 0,0 km/h (0 Bft)
17.10.2012 22:40 12,3 C 16,0 C 11,7 C 12,2 C 12,0 C 0,0 C 75 % 81 % 0 % 1015,4 hPa 0,0 l/m 0,0 km/h (0 Bft) S-SW 202 0 min 0,0 UV-I 8,0 C 12,0 C 0,0 km/h (0 Bft)
17.10.2012 22:45 12,3 C 16,0 C 11,7 C 12,2 C 12,0 C 0,0 C 75 % 81 % 0 % 1015,9 hPa 0,0 l/m 0,0 km/h (0 Bft) S 180 0 min 0,0 UV-I 8,0 C 12,0 C 0,0 km/h (0 Bft)
17.10.2012 22:50 12,2 C 16,0 C 11,7 C 12,1 C 12,0 C 0,0 C 76 % 81 % 0 % 1015,9 hPa 0,0 l/m 0,0 km/h (0 Bft) N-NO 22 0 min 0,0 UV-I 8,1 C 12,0 C 0,0 km/h (0 Bft)
17.10.2012 22:55 12,3 C 16,0 C 11,7 C 12,2 C 12,0 C 0,0 C 76 % 81 % 0 % 1015,9 hPa 0,0 l/m 0,0 km/h (0 Bft) NO 45 0 min 0,0 UV-I 8,2 C 12,0 C 0,0 km/h (0 Bft)
17.10.2012 23:00 12,2 C 16,0 C 11,7 C 12,1 C 11,8 C 0,0 C 76 % 81 % 0 % 1015,9 hPa 0,0 l/m 0,0 km/h (0 Bft) N-NO 22 0 min 0,0 UV-I 8,1 C 11,8 C 0,0 km/h (0 Bft)
17.10.2012 23:05 12,2 C 16,0 C 11,7 C 12,1 C 11,8 C 0,0 C 76 % 81 % 0 % 1015,7 hPa 0,0 l/m 0,0 km/h (0 Bft) NO 45 0 min 0,0 UV-I 8,1 C 11,8 C 0,0 km/h (0 Bft)
17.10.2012 23:10 12,1 C 16,0 C 11,6 C 11,9 C 11,5 C 0,0 C 77 % 81 % 0 % 1015,7 hPa 0,0 l/m 0,0 km/h (0 Bft) O-NO 67 0 min 0,0 UV-I 8,2 C 11,5 C 0,0 km/h (0 Bft)
17.10.2012 23:15 12,1 C 16,0 C 11,6 C 11,9 C 11,5 C 0,0 C 77 % 81 % 0 % 1015,7 hPa 0,0 l/m 0,0 km/h (0 Bft) N-NO 22 0 min 0,0 UV-I 8,2 C 11,5 C 0,0 km/h (0 Bft)
17.10.2012 23:20 12,1 C 16,0 C 11,5 C 11,8 C 11,2 C 0,0 C 77 % 82 % 0 % 1015,7 hPa 0,0 l/m 0,0 km/h (0 Bft) NW 315 0 min 0,0 UV-I 8,2 C 11,2 C 0,0 km/h (0 Bft)
17.10.2012 23:25 12,0 C 16,0 C 11,2 C 11,7 C 11,0 C 0,0 C 77 % 82 % 0 % 1015,8 hPa 0,0 l/m 0,0 km/h (0 Bft) NW 315 0 min 0,0 UV-I 8,1 C 11,0 C 0,0 km/h (0 Bft)
17.10.2012 23:30 11,9 C 16,0 C 11,1 C 11,5 C 10,7 C 0,0 C 77 % 82 % 0 % 1015,8 hPa 0,0 l/m 0,0 km/h (0 Bft) S-SO 157 0 min 0,0 UV-I 8,0 C 10,7 C 0,0 km/h (0 Bft)
17.10.2012 23:35 11,6 C 16,0 C 10,9 C 11,2 C 10,5 C 0,0 C 77 % 83 % 0 % 1015,8 hPa 0,0 l/m 0,0 km/h (0 Bft) SW 225 0 min 0,0 UV-I 7,7 C 10,5 C 0,0 km/h (0 Bft)
17.10.2012 23:40 11,5 C 16,1 C 10,8 C 11,0 C 10,0 C 0,0 C 78 % 83 % 0 % 1015,8 hPa 0,0 l/m 0,0 km/h (0 Bft) NW 315 0 min 0,0 UV-I 7,8 C 10,0 C 0,0 km/h (0 Bft)
17.10.2012 23:45 11,3 C 16,1 C 10,6 C 10,9 C 10,0 C 0,0 C 78 % 83 % 0 % 1015,9 hPa 0,0 l/m 0,0 km/h (0 Bft) W 270 0 min 0,0 UV-I 7,6 C 10,0 C 0,0 km/h (0 Bft)
17.10.2012 23:50 11,1 C 16,1 C 10,6 C 10,7 C 9,9 C 0,0 C 79 % 83 % 0 % 1015,9 hPa 0,0 l/m 0,0 km/h (0 Bft) W 270 0 min 0,0 UV-I 7,6 C 9,9 C 0,0 km/h (0 Bft)
17.10.2012 23:55 11,0 C 16,1 C 10,5 C 10,6 C 9,8 C 0,0 C 79 % 83 % 0 % 1015,9 hPa 0,0 l/m 0,0 km/h (0 Bft) W 270 0 min 0,0 UV-I 7,5 C 9,8 C 0,0 km/h (0 Bft)
_ Min-Zeit 08:10 10:35 08:15 08:10 08:15 00:00 14:45 14:35 00:00 00:00 - 02:10 - - - 00:00 08:10 08:15 00:00
Minimum _ 0,8 C 14,4 C 2,5 C 0,8 C 0,7 C 0,0 C 58 % 67 % 0 % 1014,7 hPa - 0,0 km/h (0 Bft) - - - 0,0 UV-I -1,0 C 0,7 C 0,0 km/h (0 Bft)
_ Max-Zeit 15:05 23:40 14:30 14:25 14:25 13:20 09:55 09:30 12:25 09:40 00:00 00:35 - - 12:25 13:00 17:00 14:25 13:50
Maximum _ 18,2 C 16,1 C 16,9 C 23,1 C 23,1 C 7,2 C 92 % 92 % 100 % 1017,7 hPa 0,0 l/m 3,4 km/h
SW (1 Bft)
- - 5 min 1,1 UV-I 10,8 C 23,1 C 9,8 km/h
O (2 Bft)
Durchschnitt _ 9,8 C 15,2 C 9,6 C 10,5 C 10,3 C 0,8 C 77 % 82 % 19 % 1016,1 hPa #0,0 l/m 0,5 km/h (0 Bft) O-NO - #2:20 h 0,6 UV-I 5,7 C 10,3 C 0,8 km/h (0 Bft)
2012 www.wetterstation-wechselburg.de